Tracking 17265 objects as of 3-September-2015
HD Live streaming from Space Station

Track Soyuz TMA-18M
and Space Station

ARIANE 5 R/B

Track ARIANE 5 R/B now!
ARIANE 5 R/B is classified as:


NORAD ID: 29275
Int'l Code: 2006-033D
Perigee: 286.5 km
Apogee: 33,615.4 km
Inclination: 5.8 °
Period: 590.8 minutes
Semi major axis: 23321 km
RCS: 37.7588 m2 (large)
Launch date: August 11, 2006
Source: France (FR)

Note: This is a ROCKET BODY
Your satellite tracking list
Your tracking list is empty





NASA's NSSDC Master Catalog

Two Line Element Set (TLE):
1 29275U 06033D   15244.17473275 +.00000605 +00000-0 +33256-3 0  9992
2 29275 005.7929 140.3115 7145388 104.8957 009.2877 02.43755977077774

Source of the keplerian elements: AFSPC

N2YO: 606